Flint, MI

7:51 AM EDT on October 17, 2018 (GMT -0400)
Bishop International

Weather History for KFNT - August, 2018

Change the Weather History Date:

Friday, August 10, 2018

  Actual Average Record
Temperature  
Mean Temperature 71 °F 70 °F  
Max Temperature 83 °F 80 °F 98 °F (1944)
Min Temperature 58 °F 59 °F 43 °F (1962)
Degree Days  
Heating Degree Days 0 1  
Month to date heating degree days 0 9  
Since 1 June heating degree days 32 90  
Since 1 July heating degree days 2 24  
Cooling Degree Days 6 5  
Month to date cooling degree days 94 55  
Year to date cooling degree days 524 386  
Since 1 June cooling degree days 438 354  
Growing Degree Days 22 (Base 50)    
Moisture  
Dew Point 60 °F    
Average Humidity 68    
Maximum Humidity 100    
Minimum Humidity 36    
Precipitation  
Precipitation 0.00 in 0.11 in 1.08 in (2012)
Month to date precipitation 2.67 1.06  
Year to date precipitation 20.47 18.44  
Snow  
Snow 0.00 in 0.00 in 0.00 in ()
Month to date snowfall 0.0 0.0  
Since 1 June snowfall 0.0 0.0  
Since 1 July snowfall 0.0 0.0  
Snow Depth 0.00 in    
Sea Level Pressure  
Sea Level Pressure 29.96 in    
Wind  
Wind Speed 5 mph (ENE)    
Max Wind Speed 14 mph    
Max Gust Speed 20 mph    
Visibility 9 miles    
Events      
T = Trace of Precipitation, MM = Missing Value Source: NWS Daily Summary

Daily Weather History Graph

Daily Weather History Graph

Search for Another Location

Airport or City:

Astronomy

Aug. 10, 2018 Rise Set
Actual Time 6:35 AM EDT 8:44 PM EDT
Civil Twilight 6:04 AM EDT 9:15 PM EDT
Nautical Twilight 5:25 AM EDT 9:53 PM EDT
Astronomical Twilight 4:43 AM EDT 10:35 PM EDT
Moon 5:26 AM EDT (8/10) 8:26 PM EDT (8/10)
Length of Visible Light 15h 11m
Length of Day
14h 08m
Waning Crescent, 1% of the Moon is Illuminated
Aug 10
Waning Crescent
Aug 11
New
Aug 18
First Quarter
Aug 26
Full
Sep 2
Last Quarter

Hourly Weather History & Observations

Time (EDT) Temp. Heat Index Dew Point Humidity Pressure Visibility Wind Dir Wind Speed Gust Speed Precip Events Conditions
12:53 AM 64.9 °F - 63.0 °F 93% 29.94 in 5.0 mi Calm Calm - N/A   Partly Cloudy
1:53 AM 68.0 °F - 66.0 °F 93% 29.94 in 8.0 mi NE 5.8 mph - N/A   Clear
2:39 AM 68.0 °F - 66.0 °F 93% 29.96 in 9.0 mi NNE 5.8 mph - N/A   Mostly Cloudy
2:53 AM 68.0 °F - 66.0 °F 93% 29.95 in 8.0 mi NNE 3.5 mph - N/A   Mostly Cloudy
3:53 AM 66.0 °F - 64.9 °F 96% 29.96 in 7.0 mi NNE 4.6 mph - N/A   Scattered Clouds
5:26 AM 64.9 °F - 64.0 °F 97% 29.96 in 6.0 mi NNE 3.5 mph - N/A   Clear
5:53 AM 64.9 °F - 64.0 °F 97% 29.96 in 3.0 mi Calm Calm - N/A   Clear
6:53 AM 64.9 °F - 63.0 °F 93% 29.97 in 6.0 mi Calm Calm - N/A   Clear
7:53 AM 66.9 °F - 64.9 °F 93% 29.98 in 8.0 mi ENE 3.5 mph - N/A   Clear
8:53 AM 70.0 °F - 66.0 °F 87% 29.99 in 10.0 mi NE 9.2 mph - N/A   Clear
9:53 AM 73.0 °F - 64.9 °F 76% 29.99 in 10.0 mi East 8.1 mph - N/A   Partly Cloudy
10:53 AM 75.9 °F - 63.0 °F 64% 30.00 in 10.0 mi ENE 8.1 mph - N/A   Mostly Cloudy
11:53 AM 78.1 °F - 57.9 °F 50% 29.99 in 10.0 mi NE 4.6 mph - N/A   Clear
12:53 PM 79.0 °F - 57.9 °F 48% 29.99 in 10.0 mi Variable 4.6 mph - N/A   Clear
1:53 PM 80.1 °F 80.7 °F 59.0 °F 48% 29.97 in 10.0 mi East 8.1 mph - N/A   Partly Cloudy
2:53 PM 81.0 °F 81.1 °F 57.9 °F 45% 29.96 in 10.0 mi East 10.4 mph - N/A   Scattered Clouds
3:53 PM 82.0 °F 81.6 °F 55.9 °F 41% 29.96 in 10.0 mi East 9.2 mph - N/A   Clear
4:53 PM 82.0 °F 81.4 °F 55.0 °F 39% 29.96 in 10.0 mi NE 9.2 mph - N/A   Clear
5:53 PM 81.0 °F - 52.0 °F 36% 29.94 in 10.0 mi East 8.1 mph - N/A   Clear
6:53 PM 79.0 °F - 54.0 °F 42% 29.94 in 10.0 mi East 10.4 mph - N/A   Clear
7:53 PM 75.9 °F - 52.0 °F 43% 29.94 in 10.0 mi East 10.4 mph - N/A   Clear
8:53 PM 70.0 °F - 53.1 °F 55% 29.96 in 10.0 mi ESE 4.6 mph - N/A   Clear
9:53 PM 70.0 °F - 54.0 °F 57% 29.97 in 10.0 mi Calm Calm - N/A   Clear
10:53 PM 62.1 °F - 55.0 °F 78% 29.97 in 10.0 mi Calm Calm - N/A   Clear
11:53 PM 62.1 °F - 57.0 °F 84% 29.99 in 10.0 mi Calm Calm - N/A   Clear